This is the latest recevied weather packets stored in our database for station/object ES0THZ-9. If no packets are shown the sender has not sent any weather packets the latest 10 day(s).
| Time | Temp. | Humidity | Pressure | Rain* | Wind** | Luminosity | Snow |
|---|---|---|---|---|---|---|---|
| 1777943258 | 6.67° C | 92% | 1005.1 hPa | 0 mm | - | - | - |
| 1777942676 | 6.67° C | 93% | 1005 hPa | 0 mm | - | - | - |
| 1777940249 | 6.67° C | 92% | 1004.9 hPa | 0 mm | - | - | - |
| 1777931821 | 7.78° C | 93% | 1005.4 hPa | 0 mm | - | - | - |
| 1777929412 | 7.78° C | 93% | 1005.2 hPa | 0 mm | - | - | - |
| 1777924015 | 7.22° C | 91% | 1005.3 hPa | 0 mm | - | - | - |
| 1777922792 | 7.22° C | 90% | 1005.3 hPa | 0 mm | - | - | - |
| 1777921586 | 7.78° C | 90% | 1005.3 hPa | 0 mm | - | - | - |
| 1777915568 | 8.33° C | 85% | 1004.8 hPa | 0 mm | - | - | - |
| 1777914362 | 8.33° C | 84% | 1004.8 hPa | 0 mm | - | - | - |
| 1777913780 | 8.89° C | 85% | 1004.8 hPa | 0 mm | - | - | - |
| 1777909566 | 9.44° C | 82% | 1004.9 hPa | 0 mm | - | - | - |
| 1777908945 | 9.44° C | 82% | 1004.8 hPa | 0 mm | - | - | - |
| 1777907740 | 10.56° C | 79% | 1004.6 hPa | 0 mm | - | - | - |
| 1777907138 | 11.67° C | 77% | 1004.5 hPa | 0 mm | - | - | - |
| 1777904730 | 13.33° C | 76% | 1003.9 hPa | 0 mm | - | - | - |
| 1777902323 | 12.78° C | 75% | 1003.4 hPa | 0 mm | - | - | - |
| 1777901722 | 12.78° C | 75% | 1003.4 hPa | 0 mm | - | - | - |
| 1777901118 | 12.78° C | 75% | 1003.3 hPa | 0 mm | - | - | - |
| 1777899914 | 12.78° C | 75% | 1003.3 hPa | 0 mm | - | - | - |
| 1777898710 | 13.33° C | 73% | 1003 hPa | 0 mm | - | - | - |
| 1777896904 | 13.89° C | 73% | 1002.8 hPa | 0 mm | - | - | - |
| 1777896302 | 13.33° C | 74% | 1002.5 hPa | 0 mm | - | - | - |
| 1777893895 | 13.33° C | 74% | 1002.2 hPa | 0 mm | - | - | - |
| 1777892690 | 13.33° C | 74% | 1002 hPa | 0 mm | - | - | - |
* Rain latest hour (hover to see other rain measurements)
** Current wind speed in m/s (hover to see current wind gust speed)